Погода в Павлово

Россия / Санкт-Петербург и Ленинградская область     59°48′29″N   30°53′06″E
темп.,
°C
ветер,
м/с
пор.,
м/с
влажн.,
%
обл.,
%
осадки,
мм/ч
давл.,
гПа
погр.,
м
4 марта, чт
чт400:00+1сз4989100 1.3 1000758
03:00−2сз4118383 1.4 1002638
06:00−4зсз310890 0.0 1001439
09:00−5сз37919 0.0 1002461
12:00−3ссз358396 0.1 1003633
15:00−3ссз358498 0.3 1003588
18:00−4сз3791100 0.6 1004618
21:00−5зсз289193 0.8 1004319
5 марта, пт
пт500:00−6зсз379182 0.0 1005312
03:00−7зсз269577 0.0 1006251
06:00−8сз269579 0.1 1007318
09:00−7сз369082 0.1 1009435
12:00−5ссз2480100 0.1 1011646
15:00−4ссз3476100 0.2 1012816
18:00−6ссз1283100 0.1 101476
21:00−7с159397 0.5 1016346
6 марта, сб
сб600:00−8зсз229543 0.0 101783
03:00−8зсз259468 0.0 1017207
06:00−10з259631 0.0 1017137
09:00−9зюз269022 0.0 1016264
12:00−4юз48710 0.0 1014730
15:00−3юз6116150 0.0 10091229
18:00−3юз71591100 0.9 10041267
21:00−2зюз71693100 2.8 9971408
7 марта, вс
вс700:00−1зюз61592100 1.2 9931213
03:00−4зсз41083100 3.8 992991
06:00−8з398567 0.1 992391
09:00−8зюз3107174 0.6 992919
12:00−6зюз479199 0.6 991661
15:00−5з4774100 2.3 9891237
18:00−7ссз2586100 0.3 990323
21:00−8с51180100 0.6 994992
8 марта, пн
пн800:00−9ссз4108455 0.1 998814
03:00−10ссз5109077 0.2 1001953
06:00−12ссз41091100 0.3 1003986
09:00−12с51090100 0.6 1006971
12:00−11с5986100 0.4 1009957
15:00−11с5985100 0.6 1012914
18:00−12с4990100 0.3 1014885
21:00−13с3994100 0.5 1017685